Time,TemperatureF,DewpointF,PressureIn,WindDirection,WindDirectionDegrees,WindSpeedMPH,WindSpeedGustMPH,Humidity,HourlyPrecipIn,Conditions,Clouds,dailyrainin,SolarRadiationWatts/m^2,SoftwareType,DateUTC
2013-02-05 00:01:00,46.0,33.0,29.86,SSW,198,2.0,6.0,62,0.00,,,0.00,0,weatherlink.com 1.10,2013-02-05 05:01:00,
2013-02-05 00:16:00,46.0,33.0,29.86,SW,217,2.0,5.0,62,0.00,,,0.00,0,weatherlink.com 1.10,2013-02-05 05:16:00,
2013-02-05 00:31:00,45.8,33.0,29.86,SSW,196,3.0,7.0,62,0.00,,,0.00,0,weatherlink.com 1.10,2013-02-05 05:31:00,
2013-02-05 00:46:00,45.5,33.0,29.86,SW,226,3.0,7.0,62,0.00,,,0.00,0,weatherlink.com 1.10,2013-02-05 05:46:00,
2013-02-05 01:01:00,45.2,33.0,29.85,SSW,209,2.0,7.0,63,0.00,,,0.00,0,weatherlink.com 1.10,2013-02-05 06:01:00,
2013-02-05 01:16:00,45.1,33.0,29.85,West,262,1.0,6.0,64,0.00,,,0.00,0,weatherlink.com 1.10,2013-02-05 06:16:00,
2013-02-05 01:31:00,45.0,33.0,29.86,SW,223,1.0,5.0,64,0.00,,,0.00,0,weatherlink.com 1.10,2013-02-05 06:31:00,
2013-02-05 01:46:00,44.9,33.0,29.86,SW,219,2.0,6.0,64,0.00,,,0.00,0,weatherlink.com 1.10,2013-02-05 06:46:00,
2013-02-05 02:01:00,45.0,33.0,29.86,WSW,245,3.0,4.0,64,0.00,,,0.00,0,weatherlink.com 1.10,2013-02-05 07:01:00,
2013-02-05 02:16:00,44.9,33.0,29.86,SW,218,3.0,5.0,64,0.00,,,0.00,0,weatherlink.com 1.10,2013-02-05 07:16:00,
2013-02-05 02:31:00,44.8,34.0,29.86,SSW,207,2.0,5.0,65,0.00,,,0.00,0,weatherlink.com 1.10,2013-02-05 07:31:00,
2013-02-05 02:46:00,44.7,33.0,29.85,SW,221,2.0,5.0,65,0.00,,,0.00,0,weatherlink.com 1.10,2013-02-05 07:46:00,
2013-02-05 03:01:00,45.0,34.0,29.85,SSW,210,4.0,7.0,66,0.00,,,0.00,0,weatherlink.com 1.10,2013-02-05 08:01:00,
2013-02-05 03:16:00,45.0,34.0,29.85,SSW,212,4.0,8.0,66,0.00,,,0.00,0,weatherlink.com 1.10,2013-02-05 08:16:00,
2013-02-05 03:31:00,45.0,34.0,29.84,SSW,198,6.0,8.0,66,0.00,,,0.00,0,weatherlink.com 1.10,2013-02-05 08:31:00,
2013-02-05 03:46:00,44.9,34.0,29.85,SW,224,1.0,4.0,67,0.00,,,0.00,0,weatherlink.com 1.10,2013-02-05 08:46:00,
2013-02-05 04:01:00,44.8,35.0,29.84,WSW,242,3.0,4.0,68,0.00,,,0.00,0,weatherlink.com 1.10,2013-02-05 09:01:00,
2013-02-05 04:16:00,44.8,35.0,29.84,WSW,238,2.0,6.0,68,0.00,,,0.00,0,weatherlink.com 1.10,2013-02-05 09:16:00,
2013-02-05 04:31:00,44.7,35.0,29.84,WSW,250,1.0,3.0,69,0.00,,,0.00,0,weatherlink.com 1.10,2013-02-05 09:31:00,
2013-02-05 04:46:00,44.5,35.0,29.84,SSW,198,1.0,4.0,70,0.00,,,0.00,0,weatherlink.com 1.10,2013-02-05 09:46:00,
2013-02-05 05:02:00,44.5,36.0,29.84,SW,229,0.0,4.0,71,0.00,,,0.00,0,weatherlink.com 1.10,2013-02-05 10:02:00,
2013-02-05 05:17:00,44.5,36.0,29.85,WSW,243,1.0,4.0,72,0.00,,,0.00,0,weatherlink.com 1.10,2013-02-05 10:17:00,
2013-02-05 05:32:00,44.5,36.0,29.85,WSW,247,3.0,5.0,72,0.00,,,0.00,0,weatherlink.com 1.10,2013-02-05 10:32:00,
2013-02-05 05:47:00,44.5,36.0,29.85,WSW,243,3.0,7.0,73,0.00,,,0.00,0,weatherlink.com 1.10,2013-02-05 10:47:00,
2013-02-05 06:02:00,44.6,36.0,29.86,WSW,251,2.0,6.0,72,0.00,,,0.00,0,weatherlink.com 1.10,2013-02-05 11:02:00,
2013-02-05 06:17:00,44.5,36.0,29.85,SW,222,1.0,4.0,72,0.00,,,0.00,0,weatherlink.com 1.10,2013-02-05 11:17:00,
2013-02-05 06:32:00,44.4,36.0,29.86,SW,230,1.0,3.0,73,0.00,,,0.00,0,weatherlink.com 1.10,2013-02-05 11:32:00,
2013-02-05 06:47:00,44.2,36.0,29.86,SW,229,1.0,4.0,73,0.00,,,0.00,0,weatherlink.com 1.10,2013-02-05 11:47:00,
2013-02-05 07:02:00,44.1,36.0,29.86,WSW,247,1.0,5.0,74,0.00,,,0.00,0,weatherlink.com 1.10,2013-02-05 12:02:00,
2013-02-05 07:17:00,44.0,36.0,29.86,SSW,202,2.0,4.0,74,0.00,,,0.00,0,weatherlink.com 1.10,2013-02-05 12:17:00,
2013-02-05 07:32:00,44.1,37.0,29.87,WSW,257,2.0,4.0,75,0.00,,,0.00,0,weatherlink.com 1.10,2013-02-05 12:32:00,
2013-02-05 07:47:00,44.1,37.0,29.87,SW,219,2.0,5.0,75,0.00,,,0.00,9,weatherlink.com 1.10,2013-02-05 12:47:00,
2013-02-05 08:02:00,44.2,37.0,29.88,SW,220,2.0,4.0,76,0.00,,,0.00,21,weatherlink.com 1.10,2013-02-05 13:02:00,
2013-02-05 08:17:00,44.3,37.0,29.89,SW,215,2.0,5.0,76,0.00,,,0.00,16,weatherlink.com 1.10,2013-02-05 13:17:00,
2013-02-05 08:32:00,44.4,37.0,29.89,SSW,201,1.0,4.0,76,0.00,,,0.00,14,weatherlink.com 1.10,2013-02-05 13:32:00,
2013-02-05 08:47:00,44.4,38.0,29.90,WSW,240,3.0,5.0,77,0.00,,,0.00,12,weatherlink.com 1.10,2013-02-05 13:47:00,
2013-02-05 09:02:00,44.5,38.0,29.90,SW,221,2.0,4.0,77,0.00,,,0.00,26,weatherlink.com 1.10,2013-02-05 14:02:00,
2013-02-05 09:17:00,45.1,38.0,29.91,WSW,246,3.0,6.0,77,0.00,,,0.00,76,weatherlink.com 1.10,2013-02-05 14:17:00,
2013-02-05 09:32:00,45.2,38.0,29.91,WSW,256,3.0,5.0,77,0.00,,,0.00,19,weatherlink.com 1.10,2013-02-05 14:32:00,
2013-02-05 09:47:00,45.3,39.0,29.91,West,265,4.0,5.0,78,0.00,,,0.00,91,weatherlink.com 1.10,2013-02-05 14:47:00,
2013-02-05 10:02:00,46.0,39.0,29.91,WSW,245,3.0,7.0,77,0.00,,,0.00,137,weatherlink.com 1.10,2013-02-05 15:02:00,
2013-02-05 10:17:00,46.7,40.0,29.91,SW,234,6.0,8.0,76,0.00,,,0.00,199,weatherlink.com 1.10,2013-02-05 15:17:00,
2013-02-05 10:32:00,47.1,40.0,29.91,WSW,244,6.0,11.0,75,0.00,,,0.00,127,weatherlink.com 1.10,2013-02-05 15:32:00,
2013-02-05 10:47:00,48.4,41.0,29.91,WSW,254,9.0,12.0,75,0.00,,,0.00,596,weatherlink.com 1.10,2013-02-05 15:47:00,
2013-02-05 11:02:00,48.5,40.0,29.91,SW,221,5.0,11.0,72,0.00,,,0.00,137,weatherlink.com 1.10,2013-02-05 16:02:00,
2013-02-05 11:17:00,49.6,40.0,29.91,WSW,247,5.0,11.0,70,0.00,,,0.00,624,weatherlink.com 1.10,2013-02-05 16:17:00,
2013-02-05 11:32:00,50.5,41.0,29.92,West,266,6.0,13.0,71,0.00,,,0.00,657,weatherlink.com 1.10,2013-02-05 16:32:00,
2013-02-05 11:47:00,49.4,40.0,29.92,West,265,7.0,13.0,70,0.00,,,0.00,244,weatherlink.com 1.10,2013-02-05 16:47:00,
2013-02-05 12:02:00,50.0,39.0,29.92,West,265,6.0,11.0,66,0.00,,,0.00,158,weatherlink.com 1.10,2013-02-05 17:02:00,
2013-02-05 12:17:00,50.1,40.0,29.92,SSW,208,1.0,9.0,69,0.00,,,0.00,332,weatherlink.com 1.10,2013-02-05 17:17:00,
2013-02-05 12:32:00,50.1,40.0,29.91,West,265,3.0,10.0,68,0.00,,,0.00,241,weatherlink.com 1.10,2013-02-05 17:32:00,
2013-02-05 12:47:00,52.2,40.0,29.90,WSW,255,7.0,9.0,63,0.00,,,0.00,670,weatherlink.com 1.10,2013-02-05 17:47:00,
2013-02-05 13:02:00,52.7,39.0,29.89,SW,235,7.0,9.0,61,0.00,,,0.00,758,weatherlink.com 1.10,2013-02-05 18:02:00,
2013-02-05 13:17:00,53.3,40.0,29.89,South,176,2.0,9.0,61,0.00,,,0.00,392,weatherlink.com 1.10,2013-02-05 18:17:00,
2013-02-05 13:33:00,52.6,39.0,29.88,West,263,4.0,6.0,61,0.00,,,0.00,264,weatherlink.com 1.10,2013-02-05 18:33:00,
2013-02-05 13:48:00,53.7,41.0,29.87,SSW,202,3.0,8.0,62,0.00,,,0.00,707,weatherlink.com 1.10,2013-02-05 18:48:00,
2013-02-05 14:03:00,54.2,40.0,29.87,WSW,237,5.0,11.0,59,0.00,,,0.00,619,weatherlink.com 1.10,2013-02-05 19:03:00,
2013-02-05 14:18:00,54.2,40.0,29.86,West,271,5.0,12.0,59,0.00,,,0.00,605,weatherlink.com 1.10,2013-02-05 19:18:00,
2013-02-05 14:33:00,55.3,41.0,29.87,WSW,239,5.0,9.0,59,0.00,,,0.00,578,weatherlink.com 1.10,2013-02-05 19:33:00,
2013-02-05 14:48:00,56.0,41.0,29.86,WSW,251,6.0,9.0,57,0.00,,,0.00,548,weatherlink.com 1.10,2013-02-05 19:48:00,
2013-02-05 15:03:00,56.2,40.0,29.86,South,186,2.0,9.0,55,0.00,,,0.00,519,weatherlink.com 1.10,2013-02-05 20:03:00,
2013-02-05 15:18:00,56.3,40.0,29.86,WSW,242,7.0,11.0,55,0.00,,,0.00,496,weatherlink.com 1.10,2013-02-05 20:18:00,
2013-02-05 15:33:00,56.6,39.0,29.86,SW,224,5.0,9.0,53,0.00,,,0.00,429,weatherlink.com 1.10,2013-02-05 20:33:00,
2013-02-05 15:48:00,57.0,39.0,29.85,West,276,3.0,10.0,51,0.00,,,0.00,441,weatherlink.com 1.10,2013-02-05 20:48:00,
2013-02-05 16:03:00,57.2,38.0,29.86,West,272,8.0,10.0,49,0.00,,,0.00,374,weatherlink.com 1.10,2013-02-05 21:03:00,
2013-02-05 16:18:00,56.8,38.0,29.86,WSW,244,7.0,11.0,49,0.00,,,0.00,343,weatherlink.com 1.10,2013-02-05 21:18:00,
2013-02-05 16:33:00,57.2,37.0,29.86,WSW,246,7.0,10.0,48,0.00,,,0.00,288,weatherlink.com 1.10,2013-02-05 21:33:00,
2013-02-05 16:48:00,57.2,38.0,29.85,SSW,202,3.0,10.0,49,0.00,,,0.00,236,weatherlink.com 1.10,2013-02-05 21:48:00,
2013-02-05 17:03:00,57.0,37.0,29.86,SSW,210,3.0,10.0,48,0.00,,,0.00,174,weatherlink.com 1.10,2013-02-05 22:03:00,
2013-02-05 17:18:00,56.9,37.0,29.85,WSW,246,6.0,9.0,48,0.00,,,0.00,121,weatherlink.com 1.10,2013-02-05 22:18:00,
2013-02-05 17:33:00,56.4,37.0,29.86,SSW,205,4.0,9.0,48,0.00,,,0.00,69,weatherlink.com 1.10,2013-02-05 22:33:00,
2013-02-05 17:48:00,56.0,37.0,29.86,West,262,4.0,9.0,49,0.00,,,0.00,30,weatherlink.com 1.10,2013-02-05 22:48:00,
2013-02-05 18:03:00,55.0,37.0,29.86,WSW,241,2.0,4.0,51,0.00,,,0.00,14,weatherlink.com 1.10,2013-02-05 23:03:00,
2013-02-05 18:18:00,53.6,37.0,29.86,WSW,242,1.0,3.0,53,0.00,,,0.00,0,weatherlink.com 1.10,2013-02-05 23:18:00,
2013-02-05 18:33:00,52.3,36.0,29.86,WSW,242,0.0,1.0,55,0.00,,,0.00,0,weatherlink.com 1.10,2013-02-05 23:33:00,
2013-02-05 18:48:00,51.6,36.0,29.86,WSW,242,0.0,0.0,56,0.00,,,0.00,0,weatherlink.com 1.10,2013-02-05 23:48:00,
2013-02-05 19:03:00,50.9,36.0,29.87,WSW,242,0.0,0.0,57,0.00,,,0.00,0,weatherlink.com 1.10,2013-02-06 00:03:00,
2013-02-05 19:18:00,49.8,35.0,29.88,WSW,242,0.0,0.0,58,0.00,,,0.00,0,weatherlink.com 1.10,2013-02-06 00:18:00,
2013-02-05 19:33:00,48.7,35.0,29.89,WSW,242,0.0,0.0,60,0.00,,,0.00,0,weatherlink.com 1.10,2013-02-06 00:33:00,
2013-02-05 19:48:00,47.2,35.0,29.89,WSW,242,0.0,0.0,63,0.00,,,0.00,0,weatherlink.com 1.10,2013-02-06 00:48:00,
2013-02-05 20:03:00,45.4,35.0,29.89,WSW,242,0.0,0.0,67,0.00,,,0.00,0,weatherlink.com 1.10,2013-02-06 01:03:00,
2013-02-05 20:18:00,44.3,35.0,29.90,WSW,242,0.0,0.0,69,0.00,,,0.00,0,weatherlink.com 1.10,2013-02-06 01:18:00,
2013-02-05 20:33:00,45.1,34.0,29.91,WSW,245,1.0,3.0,66,0.00,,,0.00,0,weatherlink.com 1.10,2013-02-06 01:33:00,
2013-02-05 20:48:00,46.6,34.0,29.91,West,267,2.0,4.0,61,0.00,,,0.00,0,weatherlink.com 1.10,2013-02-06 01:48:00,
2013-02-05 21:03:00,47.0,33.0,29.92,West,267,2.0,4.0,59,0.00,,,0.00,0,weatherlink.com 1.10,2013-02-06 02:03:00,
2013-02-05 21:18:00,47.3,32.0,29.92,West,267,1.0,3.0,56,0.00,,,0.00,0,weatherlink.com 1.10,2013-02-06 02:18:00,
2013-02-05 21:33:00,48.3,32.0,29.93,WNW,293,5.0,7.0,54,0.00,,,0.00,0,weatherlink.com 1.10,2013-02-06 02:33:00,
2013-02-05 21:48:00,48.7,32.0,29.93,WNW,300,2.0,4.0,53,0.00,,,0.00,0,weatherlink.com 1.10,2013-02-06 02:48:00,
2013-02-05 22:03:00,48.3,32.0,29.94,West,271,2.0,4.0,53,0.00,,,0.00,0,weatherlink.com 1.10,2013-02-06 03:03:00,
2013-02-05 22:18:00,47.1,32.0,29.94,WNW,291,1.0,3.0,56,0.00,,,0.00,0,weatherlink.com 1.10,2013-02-06 03:18:00,
2013-02-05 22:33:00,46.9,32.0,29.95,WNW,286,1.0,3.0,57,0.00,,,0.00,0,weatherlink.com 1.10,2013-02-06 03:33:00,
2013-02-05 22:48:00,47.0,33.0,29.95,West,279,5.0,5.0,58,0.00,,,0.00,0,weatherlink.com 1.10,2013-02-06 03:48:00,
2013-02-05 23:03:00,46.7,32.0,29.95,WNW,290,2.0,5.0,58,0.00,,,0.00,0,weatherlink.com 1.10,2013-02-06 04:03:00,
2013-02-05 23:18:00,45.9,33.0,29.96,West,279,0.0,3.0,60,0.00,,,0.00,0,weatherlink.com 1.10,2013-02-06 04:18:00,
2013-02-05 23:33:00,44.5,32.0,29.96,West,279,0.0,1.0,62,0.00,,,0.00,0,weatherlink.com 1.10,2013-02-06 04:33:00,
2013-02-05 23:48:00,41.8,32.0,29.97,West,279,0.0,1.0,68,0.00,,,0.00,0,weatherlink.com 1.10,2013-02-06 04:48:00,